Winona, MN

7:15 AM CST on November 17, 2019 (GMT -0600)
Winona Municipal-Conrad

Weather History for KONA - July, 2019

Change the Weather History Date:

Wednesday, July 31, 2019

  Actual Average Record
Temperature  
Mean Temperature 66 °F -  
Max Temperature 78 °F 81 °F 102 °F (2006)
Min Temperature 55 °F 57 °F 50 °F (1992)
Cooling Degree Days 2    
Growing Degree Days 16 (Base 50)    
Moisture  
Dew Point 57 °F    
Average Humidity 73    
Maximum Humidity 100    
Minimum Humidity 44    
Precipitation  
Precipitation 0.00 in - - ()
Sea Level Pressure  
Sea Level Pressure 30.17 in    
Wind  
Wind Speed 2 mph (ESE)    
Max Wind Speed 8 mph    
Max Gust Speed -    
Visibility 8 miles    
Events Fog    
Averages and records for this station are not official NWS values.
T = Trace of Precipitation, MM = Missing Value Source: NWS Daily Summary

Daily Weather History Graph

Daily Weather History Graph

Search for Another Location

Airport or City:

Astronomy

Jul. 31, 2019 Rise Set
Actual Time 5:53 AM CDT 8:32 PM CDT
Civil Twilight 5:20 AM CDT 9:05 PM CDT
Nautical Twilight 4:38 AM CDT 9:46 PM CDT
Astronomical Twilight 3:50 AM CDT 10:34 PM CDT
Moon 5:04 AM CDT (7/31) 8:33 PM CDT (7/31)
Length of Visible Light 15h 45m
Length of Day
14h 38m
Waning Crescent, 0% of the Moon is Illuminated
Jul 31
Waning Crescent
Jul 31
New
Aug 7
First Quarter
Aug 15
Full
Aug 23
Last Quarter

Hourly Weather History & Observations

Time (CDT) Temp. Dew Point Humidity Pressure Visibility Wind Dir Wind Speed Gust Speed Precip Events Conditions
12:55 AM 57.2 °F 55.4 °F 94% 30.16 in 10.0 mi NW 3.5 mph - N/A   Clear
1:55 AM 57.2 °F 55.4 °F 94% 30.17 in 10.0 mi Calm Calm - N/A   Clear
2:55 AM 55.4 °F 55.4 °F 100% 30.17 in 10.0 mi NW 4.6 mph - N/A   Clear
3:55 AM 57.2 °F 55.4 °F 94% 30.17 in 1.5 mi Calm Calm - N/A   Mist
4:55 AM 55.4 °F 55.4 °F 100% 30.17 in 0.2 mi Calm Calm - N/A Fog Fog
5:55 AM 57.2 °F 55.4 °F 94% 30.18 in 0.5 mi Calm Calm - N/A Fog Fog
6:55 AM 57.2 °F 55.4 °F 94% 30.19 in 0.8 mi Calm Calm - N/A   Overcast
7:55 AM 59.0 °F 57.2 °F 94% 30.20 in 10.0 mi Calm Calm - N/A   Overcast
8:55 AM 60.8 °F 59.0 °F 94% 30.21 in 10.0 mi Calm Calm - N/A   Clear
9:55 AM 69.8 °F 59.0 °F 68% 30.20 in 10.0 mi ESE 4.6 mph - N/A   Clear
10:55 AM 71.6 °F 57.2 °F 60% 30.20 in 10.0 mi East 3.5 mph - N/A   Clear
11:55 AM 75.2 °F 55.4 °F 50% 30.20 in 10.0 mi ESE 4.6 mph - N/A   Clear
12:55 PM 75.2 °F 55.4 °F 50% 30.19 in 10.0 mi East 8.1 mph - N/A   Clear
1:55 PM 77.0 °F 55.4 °F 47% 30.18 in 10.0 mi ESE 6.9 mph - N/A   Scattered Clouds
2:55 PM 77.0 °F 53.6 °F 44% 30.17 in 10.0 mi SW 5.8 mph - N/A   Clear
3:55 PM 77.0 °F 55.4 °F 47% 30.16 in 10.0 mi Calm Calm - N/A   Clear
4:55 PM 78.8 °F 57.2 °F 47% 30.15 in 10.0 mi ESE 4.6 mph - N/A   Clear
5:55 PM 78.8 °F 57.2 °F 47% 30.15 in 10.0 mi East 3.5 mph - N/A   Clear
6:55 PM 75.2 °F 57.2 °F 53% 30.15 in 10.0 mi Calm Calm - N/A   Clear
7:55 PM 75.2 °F 57.2 °F 53% 30.16 in 10.0 mi ESE 3.5 mph - N/A   Clear
8:55 PM 69.8 °F 59.0 °F 68% 30.16 in 10.0 mi Calm Calm - N/A   Clear
9:55 PM 69.8 °F 60.8 °F 73% 30.16 in 10.0 mi Calm Calm - N/A   Clear
10:55 PM 64.4 °F 60.8 °F 88% 30.16 in 10.0 mi Calm Calm - N/A   Clear
11:55 PM 62.6 °F 60.8 °F 94% 30.15 in 10.0 mi Calm Calm - N/A   Clear